Aérodrome :
LOGIN :

S'inscrire | Disclaimer

   EN    FR    IT 

 










Légende :    VFR   VFR Marginal   IFR   IFR Intensif   IFR Très Intensif
Visi : 
Plafond : 
>= 8 km
>= 3000ft
5 à 8 km
1000 à 3000 ft
1500m à 5 km
500 à 1000 ft
800 à 1500m
200 à 500 ft
< 800m
< 200 ft
Symboles :   Orages  Brouillard  Fortes neiges  Fortes précipitations  Vent > 20 kt
SIGMETs :   Divers  Orages  Givrage  Turbulence  Onde Orograph.  Cendres Volcan.







- Altitude de l'aérodrome : 231 ft
- Code IATA : WTN


EGXW - RAF Waddington

DERNIER METAR :
  • 230450Z 31007KT 3500 BR FEW004 M01/M02 Q0998 YLO1

METARs EXPIRÉS :
  • 230350Z 28006KT 4000 BR SCT022 M01/M01 Q0997 GRN
  • 230250Z AUTO 29004KT 5000 BR OVC021/// M00/M01 Q0997

TAF TAF EGXW
Valide du 23 à 06h jusqu'au 24 à 00h UTC


230436Z 2306/2324 31007KT 4000 BR FEW010
PROB40 2306/2310 3000 SCT004
PROB30 2306/2310 0200 FZFG VV///
BECMG 2311/2313 9999 NSW
PROB30 2318/2324 5000 BR
Pas de NOTAMs connus pour ce terrain.



MET'MAP, la Météo Aéronautique d'un coup d'oeil ! - Copyright ORBIFLY Décembre 2007 - Disclaimer

ORBIFLY MET'MAP TEAM :

Programmation & Développement : Alexandra Zaïnal
Conception & Développement : Baudouin d'Aumeries
Co-Programmation & Développement : Marc-Olivier Méhu
Soutien technique & logistique : Manuel Goepfert

Contact : metmap@orbifly.com




SOURCES & CREDITS :

   NOAA